Regional Weather Roundup
Issued by NWS

Home | Current Version | Previous Version | Graphics & Text | Print | Product List | Glossary Off
Versions: 1 2 3 4 5 6 7 8 9 10 11 12 13 14 15 16 17 18 19 20 21 22 23 24 25 26 27 28 29 30 31 32 33 34 35 36 37 38 39 40 41 42 43 44 45 46 47 48 49 50

000
ASUS43 KFSD 310210
RWRSD

WEATHER ROUNDUP FOR SOUTH DAKOTA
NATIONAL WEATHER SERVICE SIOUX FALLS SD
900 PM CDT SAT AUG 30 2014

NOTE: "FAIR" INDICATES FEW OR NO CLOUDS BELOW 12,000 FEET WITH NO
SIGNIFICANT WEATHER AND/OR OBSTRUCTIONS TO VISIBILITY.


SDZ001>005-009-010-012>017-310300-
NORTHWEST AND NORTH CENTRAL SOUTH DAKOTA

CITY           SKY/WX    TMP DP  RH WIND       PRES   REMARKS
FAITH            N/A     74  61  63 SE23G36   29.62S
MOBRIDGE       CLEAR     66  59  78 SE17      29.65F
$$

SDZ012>016-024>037-041>051-057-063-072>074-310300-
SOUTHWEST AND SOUTH CENTRAL SOUTH DAKOTA

CITY           SKY/WX    TMP DP  RH WIND       PRES   REMARKS
RAPID CTY ARPT CLOUDY    77  50  38 S12       29.63F
PIERRE         CLEAR     70  62  76 SE23G31   29.66F
CUSTER         CLOUDY    72  38  29 SW6       29.82S
ELLSWORTH AFB  CLOUDY    70  57  63 S8        29.61F
PHILIP         MOCLDY    78  62  57 SE14      29.61F
PINE RIDGE     LGT RAIN  66  59  78 W7        29.82R
WINNER         FAIR      75  63  66 SE16      29.72F
$$

SDZ004>011-016>023-039-040-310300-
NORTHEAST SOUTH DAKOTA

CITY           SKY/WX    TMP DP  RH WIND       PRES   REMARKS
ABERDEEN       CLEAR     60  59  96 SE8       29.78F
WATERTOWN      CLEAR     62  57  83 SE5       29.83S
SISSETON         N/A     61  60  97 SE6       29.81S
$$

SDZ017-020-022-023-036>040-048>070-310300-
SOUTHEAST SOUTH DAKOTA

CITY           SKY/WX    TMP DP  RH WIND       PRES   REMARKS
SIOUX FALLS    CLEAR     67  61  81 S7        29.84F
HURON          CLEAR     65  59  81 SE6       29.79F
CHAMBERLAIN    CLEAR     68  63  83 SE15      29.74F
MITCHELL       CLEAR     65  61  87 SE9       29.81F
YANKTON        CLEAR     66  63  88 E8        29.82F
$$

ABBREVIATIONS USED IN REMARKS
   TC - TEMPERATURE IN CELSIUS
  WCI - WIND CHILL INDEX
   HX - HEAT INDEX
  VSB - VISIBILITY



USA.gov is the U.S. government's official web portal to all federal, state and local government web resources and services.